STARLINK-38173, 100151

Orbit data source: Space-Track

STARLINK-38173, 100151 is a payload satellite owned by SpaceX/Seattle (US) in SSO that was launched on Sat, 25 Jul 2026 UTC launched from the Air Force Western Test Range (AFWTR). Payload-class satellites include a variety of spacecraft equipped with specific instruments for various scientific and technological missions. These include communications satellites like Starlink; space stations such as the ISS; scientific satellites like the Hubble; Earth observation satellites from companies like Planet Labs, Umbra, and HawkEye 360; GPS; miniature CubeSats for education and research; and military/defense satellites.

Loading next visibility...
Identifier
100151, 2026-171D
Orbit
SSO
Country
Flag of USUS
Related business
Manufacturer
SpaceX/Seattle
Mission
Operational spacecraft
Bus & Motor
STARLINK V2MO, Unknown motor
Mass
575 kg wet, ~530 kg dry
Launch date (UTC)
2026-07-25 (3 weeks ago)
Launch vehicle
Unknown
Launch site
Air Force Western Test Range (AFWTR)
Object type
Payload
Rocket body
Debris
Shape & HBR
BOX + PAN, 17.7 m
Radar Cross Section
RCS unknown

Expand to show TLE details & history
Last TLE update: 20 hours ago

TLE from 20 hours ago
0 STARLINK-38173
1 A0151U 26171D   26227.07221880  .00342270  00000-0  17071-2 0  9997
2 A0151  97.2837 258.9724 0001062 108.1096 252.0288 15.80960684  3249
Epoch: 2026-08-15T01:43Z
TLE epoch observation values (Epoch: 2026-08-15T01:43:59.704Z)
Latitude
-0.00002°
Longitude
-90.51471°
Altitude
331.119 km
Speed
7.71 km/s
True Right ascension
17h 15m 53s
True Declination
0° 00' 00"
Sunlit
Object was in full shadow at epoch
Visualization orbit readout
Latitude
Unknown
Longitude
Unknown
Altitude
Unknown
Speed
Unknown
Apparent Right ascension
Unknown
Apparent Declination
Unknown
Sunlit
N/A
Visualization observer readout
Local Sidereal Time
12:37:56
Azimuth
Unknown
Elevation
Unknown
Doppler factor
Unknown
Orbital elements
Apogee altitude
325.314 km
Perigee altitude
323.891 km
Semi-major axis
6,702.739 km
Eccentricity
0.00011
Inclination
97.2837°
RAAN
258.9724°
Arg. of periapsis
108.1096°
True anomaly
252.01722°
Mean anomaly
252.0288°
Eccentric anomaly
252.02301°
Mean motion
3.95517 °/min
Orbital period
91.02 mins
BSTAR
0.0017071
Loading maneuver chart data...
Computing Atmospheric mass density...
Loading historical data...
Loading historical data...
Loading historical data...
Loading historical data...
Loading historical data...
Loading historical data...
Loading historical data...

Documentation

Showing up to 5 results
|